TimePDT,TemperatureF,Dew PointF,Humidity,Sea Level PressureIn,VisibilityMPH,Wind Direction,Wind SpeedMPH,Gust SpeedMPH,PrecipitationIn,Events,Conditions,WindDirDegrees,DateUTC
12:15 AM,51.8,37.4,58,30.33,10.0,Calm,Calm,-,N/A,,Clear,0,2013-07-30 07:15:00
12:35 AM,53.6,39.2,58,30.33,10.0,Calm,Calm,-,N/A,,Clear,0,2013-07-30 07:35:00
12:55 AM,51.8,37.4,58,30.33,10.0,Calm,Calm,-,N/A,,Clear,0,2013-07-30 07:55:00
1:15 AM,50.0,37.4,62,30.33,10.0,Calm,Calm,-,N/A,,Clear,0,2013-07-30 08:15:00
1:35 AM,50.0,37.4,62,30.33,10.0,Calm,Calm,-,N/A,,Clear,0,2013-07-30 08:35:00
1:55 AM,50.0,37.4,62,30.33,10.0,Calm,Calm,-,N/A,,Clear,0,2013-07-30 08:55:00
2:15 AM,50.0,37.4,62,30.33,10.0,Calm,Calm,-,N/A,,Clear,0,2013-07-30 09:15:00
2:35 AM,50.0,39.2,66,30.33,10.0,Calm,Calm,-,N/A,,Clear,0,2013-07-30 09:35:00
2:55 AM,50.0,39.2,66,30.34,10.0,Calm,Calm,-,N/A,,Clear,0,2013-07-30 09:55:00
3:15 AM,50.0,39.2,66,30.33,10.0,Calm,Calm,-,N/A,,Clear,0,2013-07-30 10:15:00
3:35 AM,50.0,39.2,66,30.33,10.0,Calm,Calm,-,N/A,,Clear,0,2013-07-30 10:35:00
3:55 AM,46.4,37.4,71,30.33,10.0,Calm,Calm,-,N/A,,Clear,0,2013-07-30 10:55:00
4:15 AM,46.4,37.4,71,30.34,10.0,Calm,Calm,-,N/A,,Clear,0,2013-07-30 11:15:00
4:35 AM,46.4,37.4,71,30.34,10.0,Calm,Calm,-,N/A,,Clear,0,2013-07-30 11:35:00
4:55 AM,46.4,37.4,71,30.34,10.0,Calm,Calm,-,N/A,,Clear,0,2013-07-30 11:55:00
5:15 AM,46.4,39.2,76,30.34,10.0,Calm,Calm,-,N/A,,Clear,0,2013-07-30 12:15:00
5:35 AM,46.4,37.4,71,30.34,10.0,Calm,Calm,-,N/A,,Clear,0,2013-07-30 12:35:00
5:55 AM,46.4,39.2,76,30.35,10.0,WSW,3.5,-,N/A,,Clear,250,2013-07-30 12:55:00
6:15 AM,46.4,37.4,71,30.36,10.0,Calm,Calm,-,N/A,,Clear,0,2013-07-30 13:15:00
6:35 AM,46.4,37.4,71,30.36,10.0,Calm,Calm,-,N/A,,Clear,0,2013-07-30 13:35:00
6:55 AM,50.0,41.0,71,30.36,10.0,Calm,Calm,-,N/A,,Clear,0,2013-07-30 13:55:00
7:15 AM,53.6,42.8,67,30.36,10.0,Calm,Calm,-,N/A,,Clear,0,2013-07-30 14:15:00
7:35 AM,55.4,44.6,67,30.37,10.0,Calm,Calm,-,N/A,,Clear,0,2013-07-30 14:35:00
7:55 AM,59.0,44.6,59,30.37,10.0,Calm,Calm,-,N/A,,Clear,0,2013-07-30 14:55:00
8:15 AM,62.6,42.8,48,30.37,10.0,West,3.5,-,N/A,,Clear,260,2013-07-30 15:15:00
8:35 AM,66.2,41.0,40,30.37,10.0,Calm,Calm,-,N/A,,Clear,0,2013-07-30 15:35:00
8:55 AM,69.8,41.0,35,30.38,10.0,ESE,9.2,16.1,N/A,,Clear,120,2013-07-30 15:55:00
9:15 AM,69.8,39.2,33,30.37,10.0,East,8.1,-,N/A,,Clear,90,2013-07-30 16:15:00
9:55 AM,71.6,41.0,33,30.38,10.0,ESE,4.6,-,N/A,,Clear,120,2013-07-30 16:55:00
10:15 AM,71.6,41.0,33,30.38,10.0,SSE,8.1,-,N/A,,Clear,150,2013-07-30 17:15:00
10:35 AM,71.6,41.0,33,30.38,10.0,SSE,8.1,16.1,N/A,,Clear,160,2013-07-30 17:35:00
11:15 AM,73.4,41.0,31,30.39,10.0,ESE,6.9,-,N/A,,Clear,120,2013-07-30 18:15:00
11:35 AM,73.4,41.0,31,30.38,10.0,South,5.8,-,N/A,,Clear,180,2013-07-30 18:35:00
11:55 AM,73.4,41.0,31,30.37,10.0,SE,6.9,-,N/A,,Clear,130,2013-07-30 18:55:00
12:15 PM,73.4,41.0,31,30.37,10.0,West,4.6,-,N/A,,Scattered Clouds,270,2013-07-30 19:15:00
12:35 PM,73.4,37.4,27,30.37,10.0,NNW,9.2,-,N/A,,Scattered Clouds,330,2013-07-30 19:35:00
12:55 PM,75.2,41.0,29,30.37,10.0,West,8.1,-,N/A,,Scattered Clouds,280,2013-07-30 19:55:00
1:15 PM,75.2,41.0,29,30.36,10.0,West,9.2,-,N/A,,Clear,270,2013-07-30 20:15:00
1:35 PM,75.2,41.0,29,30.36,10.0,West,8.1,-,N/A,,Clear,270,2013-07-30 20:35:00
1:55 PM,77.0,41.0,28,30.36,10.0,West,12.7,16.1,N/A,,Clear,260,2013-07-30 20:55:00
2:15 PM,77.0,41.0,28,30.36,10.0,WSW,6.9,-,N/A,,Clear,250,2013-07-30 21:15:00
2:35 PM,77.0,41.0,28,30.36,10.0,West,9.2,19.6,N/A,,Clear,260,2013-07-30 21:35:00
2:55 PM,77.0,42.8,29,30.36,10.0,WSW,10.4,-,N/A,,Clear,250,2013-07-30 21:55:00
3:15 PM,77.0,44.6,32,30.36,10.0,West,10.4,16.1,N/A,,Clear,260,2013-07-30 22:15:00
3:35 PM,77.0,44.6,32,30.35,10.0,West,12.7,17.3,N/A,,Clear,260,2013-07-30 22:35:00
3:55 PM,75.2,42.8,31,30.35,10.0,West,10.4,-,N/A,,Clear,260,2013-07-30 22:55:00
4:15 PM,77.0,42.8,29,30.35,10.0,West,12.7,-,N/A,,Clear,260,2013-07-30 23:15:00
4:35 PM,77.0,41.0,28,30.35,10.0,West,12.7,-,N/A,,Clear,270,2013-07-30 23:35:00
4:55 PM,77.0,41.0,28,30.34,10.0,West,10.4,17.3,N/A,,Clear,270,2013-07-30 23:55:00
5:15 PM,75.2,41.0,29,30.34,10.0,West,10.4,-,N/A,,Clear,270,2013-07-31 00:15:00
5:35 PM,75.2,41.0,29,30.34,10.0,West,15.0,-,N/A,,Clear,270,2013-07-31 00:35:00
5:55 PM,73.4,42.8,33,30.34,10.0,West,10.4,-,N/A,,Clear,260,2013-07-31 00:55:00
6:15 PM,73.4,39.2,29,30.34,10.0,West,6.9,-,N/A,,Clear,270,2013-07-31 01:15:00
6:35 PM,71.6,39.2,31,30.34,10.0,West,10.4,-,N/A,,Clear,270,2013-07-31 01:35:00
6:55 PM,71.6,37.4,29,30.35,10.0,West,8.1,-,N/A,,Clear,270,2013-07-31 01:55:00
7:15 PM,69.8,37.4,31,30.35,10.0,West,6.9,-,N/A,,Clear,270,2013-07-31 02:15:00
7:35 PM,68.0,37.4,33,30.35,10.0,West,4.6,-,N/A,,Clear,280,2013-07-31 02:35:00
7:55 PM,66.2,37.4,35,30.36,10.0,West,3.5,-,N/A,,Clear,270,2013-07-31 02:55:00
8:15 PM,64.4,37.4,37,30.36,10.0,Calm,Calm,-,N/A,,Clear,0,2013-07-31 03:15:00
8:35 PM,64.4,39.2,40,30.36,10.0,Calm,Calm,-,N/A,,Clear,0,2013-07-31 03:35:00
8:55 PM,62.6,39.2,42,30.37,10.0,Calm,Calm,-,N/A,,Clear,0,2013-07-31 03:55:00
9:15 PM,60.8,37.4,42,30.38,10.0,Calm,Calm,-,N/A,,Clear,0,2013-07-31 04:15:00
9:35 PM,60.8,35.6,39,30.39,10.0,Calm,Calm,-,N/A,,Clear,0,2013-07-31 04:35:00
9:55 PM,57.2,39.2,51,30.39,10.0,Calm,Calm,-,N/A,,Clear,0,2013-07-31 04:55:00
10:15 PM,55.4,39.2,54,30.39,10.0,Calm,Calm,-,N/A,,Clear,0,2013-07-31 05:15:00
10:35 PM,53.6,39.2,58,30.39,10.0,Calm,Calm,-,N/A,,Clear,0,2013-07-31 05:35:00
10:55 PM,53.6,37.4,54,30.39,10.0,Calm,Calm,-,N/A,,Clear,0,2013-07-31 05:55:00
11:15 PM,51.8,37.4,58,30.39,10.0,Calm,Calm,-,N/A,,Clear,0,2013-07-31 06:15:00
11:55 PM,50.0,35.6,58,30.39,10.0,Calm,Calm,-,N/A,,Clear,0,2013-07-31 06:55:00